Regional Weather Roundup
Issued by NWS Green Bay, WI

Home | Current Version | Previous Version | Text Only | Print | Product List | Glossary On
Versions: 1 2 3 4 5 6 7 8 9 10 11 12 13 14 15 16 17 18 19 20 21 22 23 24 25 26 27 28 29 30 31 32 33 34 35 36 37 38 39 40 41 42 43 44 45 46 47 48 49 50
000
ASUS43 KGRB 300611
RWRGRB

NORTH-CENTRAL AND NORTHEAST WISCONSIN REGIONAL WEATHER ROUNDUP
NATIONAL WEATHER SERVICE GREEN BAY WI
100 AM CDT TUE JUN 30 2015

WIZ005-009-010>012-018-019-300700-
NORTH CENTRAL WISCONSIN

CITY           SKY/WX    TMP DP  RH WIND       PRES   REMARKS
IRONWOOD       CLOUDY    59  59 100 N3        29.83R
MANITOWISH WTR CLOUDY    59  59 100 N3        29.84S
ARBOR VITAE    MOCLDY    61  59  92 N8        29.83S
EAGLE RIVER    MOCLDY    60  60 100 N5        29.82S
LAND O LAKES   CLOUDY    60  59  96 N6        29.84S
RHINELANDER    CLEAR     59  57  93 CALM      29.83R
PHILLIPS       PTCLDY    58  58 100 NW5       29.83S
ANTIGO         PTCLDY    55  55 100 N3        29.81S FOG
TOMAHAWK       CLOUDY    56  55  97 CALM      29.83R FOG
MERRILL        PTCLDY    58  58 100 NW3       29.82S FOG
$$

WIZ013-073-300700-
NORTHEAST WISCONSIN

CITY           SKY/WX    TMP DP  RH WIND       PRES   REMARKS
IRON MOUNTAIN  CLOUDY    61  59  93 NW3       29.78R
MARINETTE      MOCLDY    63  59  88 N6        29.75S
OCONTO         CLOUDY    63  63 100 CALM      29.75S
$$

WIZ017-030-035>037-045-300700-
CENTRAL WISCONSIN

CITY           SKY/WX    TMP DP  RH WIND       PRES   REMARKS
MEDFORD        CLOUDY    58  57  99 NW5       29.83S FOG
WAUSAU         PTCLDY    60  58  92 NW6       29.79S FOG
MOSINEE        NOT AVBL
MARSHFIELD     PTCLDY    59  55  87 NW7       29.82R FOG
WISC RAPIDS    CLEAR     58  55  90 NW5       29.81F
STEVENS POINT  CLEAR     57  56  97 W6        29.81S FOG
WAUPACA        CLEAR     59  59  99 W3        29.78F FOG
SHAWANO        MOCLDY    61  59  92 NW5       29.77S FOG
CLINTONVILLE   PTCLDY   N/A N/A N/A W7        29.77F
$$

WIZ038-039-048-051-300700-
FOX VALLEY

CITY           SKY/WX    TMP DP  RH WIND       PRES   REMARKS
NWS GREEN BAY  CLOUDY    64  62  93 CALM      29.76S
APPLETON       MOCLDY    59  59 100 W8        29.77F
OSHKOSH        MOCLDY    62  58  86 W8        29.77S
FOND DU LAC    MOCLDY    62  60  93 CALM      29.78S
$$

WIZ022-050-052-300700-
EAST CENTRAL WISCONSIN

CITY           SKY/WX    TMP DP  RH WIND       PRES   REMARKS
STURGEON BAY   CLOUDY    63  57  82 SE6       29.78S
MANITOWOC      CLOUDY    63  61  93 MISG      29.76F
SHEBOYGAN      CLOUDY    62  61  96 S5        29.77S FOG
$$

LMZ563-521-522-541>543-300700-
LAKESHORE

STATION/POSITION TIME  TEMP    WIND        PRES    VSBY  WAVE
                       AIR SEA DIR/SP/G                  HT/PER
                 (UTC) (F)     (DEG/KT/KT) (MB)    (MI)  (FT/S)
SHEBOYGAN LKSHOR 0600   61     200/  9/ 10 1008.2R
KEWAUNEE LKSHORE 0500   60     180/  9/ 10 1007.2F
ALGOMA MARINA    0510          210/  9/ 11   N/A
NORTHPORT PIER   0500   62      CALM  /  4 1007.8F
N MID LAKE BUOY  0550   53 53  200/  8/ 10 1008.4R         1/ 3
S GREEN BAY BUOY 0600   68 71  330/  6/  8 1008.6
CHAMBERS ISLAND  0500   63     220/  2/  3 1008.1R
MENOMINEE LKSHOR 0500   66     140/  2/  3 1008.3R
$$


USA.gov is the U.S. government's official web portal to all federal, state and local government web resources and services.